This is the latest recevied weather packets stored in our database for station/object EA6AMI-5. If no packets are shown the sender has not sent any weather packets the latest 10 day(s).
| Time | Temp. | Humidity | Pressure | Rain* | Wind** | Luminosity | Snow |
|---|---|---|---|---|---|---|---|
| 1788146823 | 20.56° C | 79% | 1017.9 hPa | 0 mm | - | 0 W/m² | - |
| 1788146283 | 20.56° C | 79% | 1017.7 hPa | 0 mm | - | 0 W/m² | - |
| 1788145743 | 20.56° C | 79% | 1017.9 hPa | 0 mm | - | 0 W/m² | - |
| 1788145203 | 20.56° C | 80% | 1017.8 hPa | 0 mm | - | 0 W/m² | - |
| 1788144843 | 20.56° C | 80% | 1017.9 hPa | 0 mm | - | 0 W/m² | - |
| 1788144303 | 20.56° C | 79% | 1018 hPa | 0 mm | - | 0 W/m² | - |
| 1788143763 | 21.11° C | 77% | 1017.8 hPa | 0 mm | - | 0 W/m² | - |
| 1788143223 | 21.11° C | 78% | 1018 hPa | 0 mm | - | 0 W/m² | - |
| 1788142683 | 21.11° C | 79% | 1017.9 hPa | 0 mm | - | 0 W/m² | - |
| 1788142143 | 21.11° C | 79% | 1018 hPa | 0 mm | - | 0 W/m² | - |
| 1788141603 | 21.11° C | 79% | 1017.9 hPa | 0 mm | - | 0 W/m² | - |
| 1788141243 | 21.11° C | 79% | 1018 hPa | 0 mm | - | 0 W/m² | - |
| 1788140703 | 21.11° C | 78% | 1018 hPa | 0 mm | - | 0 W/m² | - |
| 1788140163 | 21.11° C | 78% | 1018.1 hPa | 0 mm | - | 0 W/m² | - |
| 1788139623 | 21.11° C | 77% | 1018.1 hPa | 0 mm | - | 0 W/m² | - |
| 1788139083 | 21.11° C | 76% | 1018.1 hPa | 0 mm | - | 0 W/m² | - |
| 1788138543 | 21.67° C | 76% | 1018.3 hPa | 0 mm | - | 0 W/m² | - |
| 1788138003 | 21.67° C | 77% | 1018.4 hPa | 0 mm | - | 0 W/m² | - |
| 1788137643 | 21.67° C | 76% | 1018.3 hPa | 0 mm | - | 0 W/m² | - |
| 1788137103 | 21.67° C | 79% | 1018.2 hPa | 0 mm | - | 0 W/m² | - |
| 1788136563 | 21.67° C | 76% | 1018.4 hPa | 0 mm | - | 0 W/m² | - |
| 1788136023 | 21.67° C | 75% | 1018.3 hPa | 0 mm | - | 0 W/m² | - |
| 1788135483 | 21.67° C | 76% | 1018.6 hPa | 0 mm | - | 0 W/m² | - |
| 1788134943 | 21.67° C | 75% | 1018.7 hPa | 0 mm | - | 0 W/m² | - |
| 1788134403 | 21.67° C | 76% | 1018.6 hPa | 0 mm | - | 0 W/m² | - |
* Rain latest hour (hover to see other rain measurements)
** Current wind speed in m/s (hover to see current wind gust speed)